SCP
0 0 0 0 0 0 0 0 0 0 0 0 0 0 0 0 0 0 0 0 0 0
0 0 0 0 0 0 0 0 0 0 0 0 0 0 0 0 0 0 0 0 0 0
0 0 0 0 0 0 0 0 0 0 0 0 0 0 0 0 0 0 0 0 0 0
0 0 0 0 0 0 0 0 0 0 0 0 0 0 0 0 0 0 0 0 0 0
0 0 0 0 0 0 0 0 0 0 0 0 0 0 0 0 0 0 0 0 0 0
0 0 0 0 0 0 0 0 0 0 0 0 0 0 0 0 0 0 0 0 0 0
0 0 0 0 0 0 0 0 0 0 0 0 0 0 0 0 0 0 0 0 0 0
0 0 0 0 0 0 0 0 0 0 0 0 0 0 0 0 0 0 0 0 0 0
0 0 0 0 0 0 0 0 0 0 0 0 0 0 0 0 0 0 0 0 0 0
0 0 0 0 0 0 0 0 0 0 0 0 0 0 0 0 0 0 0 0 0 0
0 0 0 0 0 0 0 0 0 0 0 0 0 0 0 0 0 0 0 0 0 0
0 0 0 0 0 0 0 0 0 0 0 0 0 0 0 0 0 0 0 0 0 0
0 0 0 0 0 0 0 0 0 0 0 0 0 0 0 0 0 0 0 0 0 0
-0 0 0 0 0 0 0 0 0 0 0 0 0 0 0 0 0 0 0 0 0 0
Wind_Speed_500mb
99 106 108 108 103 99 95 91 89 87 85 82 81 79 80 82 84 84 83 80 79 77
99 104 109 112 111 109 106 103 98 94 90 86 83 80 80 81 85 86 83 82 80 77
92 100 103 107 113 116 113 110 108 105 99 93 86 82 80 82 82 87 86 84 82 77
84 93 99 106 108 110 113 114 114 112 107 101 95 90 86 84 85 88 88 85 80 77
71 80 93 103 109 108 110 111 114 115 113 108 104 98 95 92 90 90 90 86 82 78
57 59 69 87 100 107 110 111 110 112 116 113 111 107 102 97 93 91 88 87 83 79
63 66 65 71 85 97 104 109 110 112 115 115 112 112 107 101 96 92 91 87 85 81
62 69 77 81 82 83 95 102 106 110 113 113 114 114 110 104 96 92 92 89 85 82
79 75 77 80 86 86 88 96 97 103 109 113 112 114 110 101 95 96 93 90 85 82
80 81 79 76 80 84 86 89 99 104 104 110 110 110 106 99 100 95 92 89 85 82
95 95 91 78 79 82 83 89 93 103 104 104 111 105 101 101 96 94 89 87 83 79
93 93 91 93 85 85 85 89 92 97 104 103 107 103 104 100 97 93 89 85 80 76
96 94 91 95 93 89 86 86 90 95 99 100 103 102 104 99 97 96 91 85 79 74
104 100 98 94 96 91 89 87 90 96 96 102 102 103 102 103 102 99 92 86 80 78
Wind_Direction_500mb
256 255 257 259 257 255 255 256 256 254 253 253 252 252 252 252 254 254 254 255 256 256
258 257 258 259 259 259 259 259 258 257 255 253 252 252 252 252 252 252 252 253 254 256
270 264 265 262 261 262 262 259 258 257 257 255 253 252 250 249 249 250 250 250 251 254
275 270 268 264 265 265 265 263 260 259 258 256 255 252 249 247 246 247 246 247 248 252
277 274 272 268 267 267 266 265 263 261 259 257 256 254 251 248 245 244 243 245 246 251
291 287 278 271 269 267 266 265 264 262 259 257 255 254 251 249 246 245 245 244 246 247
295 293 293 287 275 268 266 266 265 263 262 260 257 255 252 249 245 245 244 243 243 243
300 298 303 301 290 280 269 265 264 262 261 259 256 253 250 249 245 244 242 240 241 242
320 314 305 303 299 288 278 271 265 261 259 257 255 253 250 248 243 242 238 240 239 238
322 319 309 305 300 293 283 275 266 261 257 256 254 251 249 243 241 240 240 239 236 239
311 311 310 302 296 293 290 278 270 262 258 256 253 249 245 242 238 239 239 238 237 239
309 307 307 300 300 294 289 280 269 263 258 254 252 247 242 238 236 235 235 236 235 236
309 303 301 300 296 294 285 281 273 263 259 254 251 245 241 235 232 231 231 231 232 233
304 303 297 297 291 290 285 281 274 264 255 250 245 242 238 235 230 229 229 228 228 230
Wind_Speed_850mb
99 106 108 108 103 99 95 91 89 87 85 82 81 79 80 82 84 84 83 80 79 77
99 104 109 112 111 109 106 103 98 94 90 86 83 80 80 81 85 86 83 82 80 77
92 100 103 107 113 116 113 110 108 105 99 93 86 82 80 82 82 87 86 84 82 77
84 93 99 106 108 110 113 114 114 112 107 101 95 90 86 84 85 88 88 85 80 77
71 80 93 103 109 108 110 111 114 115 113 108 104 98 95 92 90 90 90 86 82 78
57 59 69 87 100 107 110 111 110 112 116 113 111 107 102 97 93 91 88 87 83 79
63 66 65 71 85 97 104 109 110 112 115 115 112 112 107 101 96 92 91 87 85 81
62 69 77 81 82 83 95 102 106 110 113 113 114 114 110 104 96 92 92 89 85 82
79 75 77 80 86 86 88 96 97 103 109 113 112 114 110 101 95 96 93 90 85 82
80 81 79 76 80 84 86 89 99 104 104 110 110 110 106 99 100 95 92 89 85 82
95 95 91 78 79 82 83 89 93 103 104 104 111 105 101 101 96 94 89 87 83 79
93 93 91 93 85 85 85 89 92 97 104 103 107 103 104 100 97 93 89 85 80 76
96 94 91 95 93 89 86 86 90 95 99 100 103 102 104 99 97 96 91 85 79 74
104 100 98 94 96 91 89 87 90 96 96 102 102 103 102 103 102 99 92 86 80 78
Wind_Direction_850mb
256 255 257 259 257 255 255 256 256 254 253 253 252 252 252 252 254 254 254 255 256 256
258 257 258 259 259 259 259 259 258 257 255 253 252 252 252 252 252 252 252 253 254 256
270 264 265 262 261 262 262 259 258 257 257 255 253 252 250 249 249 250 250 250 251 254
275 270 268 264 265 265 265 263 260 259 258 256 255 252 249 247 246 247 246 247 248 252
277 274 272 268 267 267 266 265 263 261 259 257 256 254 251 248 245 244 243 245 246 251
291 287 278 271 269 267 266 265 264 262 259 257 255 254 251 249 246 245 245 244 246 247
295 293 293 287 275 268 266 266 265 263 262 260 257 255 252 249 245 245 244 243 243 243
300 298 303 301 290 280 269 265 264 262 261 259 256 253 250 249 245 244 242 240 241 242
320 314 305 303 299 288 278 271 265 261 259 257 255 253 250 248 243 242 238 240 239 238
322 319 309 305 300 293 283 275 266 261 257 256 254 251 249 243 241 240 240 239 236 239
311 311 310 302 296 293 290 278 270 262 258 256 253 249 245 242 238 239 239 238 237 239
309 307 307 300 300 294 289 280 269 263 258 254 252 247 242 238 236 235 235 236 235 236
309 303 301 300 296 294 285 281 273 263 259 254 251 245 241 235 232 231 231 231 232 233
304 303 297 297 291 290 285 281 274 264 255 250 245 242 238 235 230 229 229 228 228 230